Terminal Aerodrome Forecast
Issued by NWS Cleveland, OH

Home | Current Version | Previous Version | Text Only | Print | Product List | Glossary On
Versions: 1 2 3 4 5 6 7 8 9 10 11 12 13 14 15 16 17 18 19 20 21 22 23 24 25 26 27
406
FTUS41 KCLE 300536
TAFCLE
TAF
KCLE 300536Z 3006/0112 05010KT P6SM OVC100
     FM300900 10010KT P6SM OVC035
      TEMPO 3009/3012 OVC025
     FM301500 16012KT P6SM BKN070
     FM301800 18015G25KT P6SM BKN150
     FM010000 16010KT P6SM -SHRA OVC050=

USA.gov is the U.S. government's official web portal to all federal, state and local government web resources and services.